This demonstration page uses our WeatherBlox Daily Observations layout. Learn more.

Left ArrowRight Arrow

41.86663, -103.66717

Hourly Observations for April 19, 2017

Temp ( °F °C ) Dew Point ( °F °C ) Humidity (%) Winds ( mph kmh ) Pressure ( in mb ) Visibility ( mi km ) Precip ( " mm )
12:53 am 00:53 Cloudy 56 13.3 35 1.7 46 46 SE 17 28 29.75 1008 10 16.0934 N/A
1:53 am 01:53 Cloudy 56 13.3 36 2.2 47 47 ESE 20 31 29.72 1007 10 16.0934 N/A
2:24 am 02:24 Cloudy with Nearby Thunderstorms 55 13 36 2 47 47 SE 17 28 29.71 1006 10 16.0934 N/A
2:33 am 02:33 Cloudy with Nearby Thunderstorms 55 12.8 37 2.8 51 51 WNW 17 28 29.8 1009 10 16.0934 N/A
2:44 am 02:44 Cloudy with Thunderstorms 55 13 36 2 47 47 NNE 13 20 29.8 1009 10 16.0934 N/A
2:53 am 02:53 Cloudy with Light Thunderstorms 55 12.8 37 2.8 51 51 NE 16 26 29.79 1009 10 16.0934 N/A
3:09 am 03:09 Cloudy with Thunderstorms 53 11.7 38 3.3 57 57 ENE 22 35 29.8 1009 10 16.0934 0.01 0.254
3:20 am 03:20 Cloudy with Nearby Thunderstorms 54 12 37 3 54 54 ENE 10 17 29.83 1010 10 16.0934 N/A
3:28 am 03:28 Cloudy 54 12 39 4 58 58 E 14 22 29.83 1010 10 16.0934 N/A
3:53 am 03:53 Cloudy with Nearby Thunderstorms 53 11.7 39 3.9 59 59 E 14 22 29.75 1007 10 16.0934 0.02 0.508
4:12 am 04:12 Partly Cloudy 54 12 39 4 58 58 ESE 18 30 29.77 1008 10 16.0934 N/A
4:53 am 04:53 Partly Cloudy 47 8.3 40 4.4 77 77 ENE 7 11 29.76 1008 10 16.0934 N/A
5:53 am 05:53 Cloudy 50 10 41 5 71 71 ENE 8 13 29.77 1008 10 16.0934 N/A
6:53 am 06:53 Cloudy 51 10.6 43 6.1 74 74 E 8 13 29.8 1009 10 16.0934 N/A
7:53 am 07:53 Sunny 53 11.7 43 6.1 69 69 ENE 9 15 29.8 1009 10 16.0934 N/A
8:53 am 08:53 Mostly Sunny 56 13.3 42 5.6 60 60 SSE 10 17 29.79 1009 10 16.0934 N/A
9:53 am 09:53 Mostly Cloudy 58 14.4 42 5.6 56 56 WSW 6 9 29.8 1009 10 16.0934 N/A
10:53 am 10:53 Partly Cloudy 64 17.8 38 3.3 38 38 W 20 31 29.81 1010 10 16.0934 N/A
11:53 am 11:53 Partly Cloudy 65 18.3 37 2.8 36 36 WNW 23 37 29.81 1009 10 16.0934 N/A
12:53 pm 12:53 Mostly Cloudy 65 18.3 39 3.9 39 39 NW 29 46 29.83 1010 10 16.0934 N/A
1:53 pm 13:53 Sunny 65 18.3 38 3.3 37 37 NW 30 48 29.85 1011 10 16.0934 N/A
2:53 pm 14:53 Sunny 63 17.2 36 2.2 37 37 NW 33 54 29.88 1012 10 16.0934 N/A
3:53 pm 15:53 Sunny 63 17.2 34 1.1 34 34 NW 28 44 29.92 1013 10 16.0934 N/A
4:53 pm 16:53 Sunny 62 16.7 34 1.1 35 35 NW 23 37 29.94 1014 10 16.0934 N/A
5:53 pm 17:53 Sunny 61 16.1 33 0.6 35 35 NNW 23 37 29.96 1015 10 16.0934 N/A
6:53 pm 18:53 Sunny 57 13.9 34 1.1 42 42 NNW 23 37 29.99 1016 10 16.0934 N/A
7:53 pm 19:53 Clear 52 11.1 34 1.1 50 50 NNW 10 17 30.05 1018 10 16.0934 N/A
8:53 pm 20:53 Clear 48 8.9 34 1.1 58 58 N 7 11 30.09 1019 10 16.0934 N/A
9:53 pm 21:53 Clear 43 6.1 34 1.1 71 71 WNW 7 11 30.11 1020 10 16.0934 N/A
10:53 pm 22:53 Clear 44 6.7 34 1.1 68 68 WNW 5 7 30.1 1019 10 16.0934 N/A
11:53 pm 23:53 Clear 38 3.3 32 undefined 79 79 WNW 5 7 30.14 1021 10 16.0934 N/A

Powered by AerisWeather